OneWeb SL0131

operational
NORAD ID: 47270 Int'l Des: 2020-100 Owner: ONEWEB Country: UK Constellation: oneweb
LEOCIRCULARPOLARONEWEB_TYPE

Über OneWeb SL0131

Beschreibung wird geladen...

Live-Position

3D-Globus wird geladen...

Nächste Überflüge

Höhenverlauf

Altitude vs Time

uPlot chart will show altitude changes over time

Zweizeiliger Elementsatz

1 47270U 20100N 26036.23010716 .00000406 00000-0 10929-2 0 9993
2 47270 87.8943 16.8744 0001780 80.6298 279.5031 13.12442902247266
Epoch: 5. Feb. 2026 • Age: 7 hours

Aktueller Status

Höhe 1243.9 km
Geschwindigkeit 7.23 km/s
Subsatellitenpunkt -86.96°S, 80.97°W
Startdatum 18. Dez. 2020
Alter 5.1 years
Typ internet

Technische Details

Klassifizierung Payload
Masse 148.00 kg
Trockenmasse 140.00 kg
Gesamtmasse 148.00 kg
Länge 1.30 m
Durchmesser 1.00 m
Spannweite 5.00 m
Form Trapezoid+2 pan
Hersteller ONEWUS
Bus-Typ ARROW
Phasenstatus In Orbit
Besitzer/Staat ONEWEB/UK

Große Konstellationen

Loading constellations...